Temp
9 9 10 10 10 10 10 10 10 10 9 9 9 9 10 10 9 8 9 10 9 9 9 9 9 9 9 8 8 7 6 6 5 4 3 2 1 0 -0 -1 -1 -3 -4 -4 -4
9 9 9 10 10 10 10 11 10 9 9 9 9 9 9 9 9 9 9 9 8 8 8 8 8 9 8 8 8 7 6 5 3 3 2 1 -0 -1 -1 -2 -3 -5 -5 -4 -4
9 9 9 10 10 10 10 10 10 9 9 9 9 9 9 9 9 9 8 8 8 8 8 8 8 8 8 7 6 5 4 3 2 1 0 -1 -2 -2 -3 -4 -5 -4 -4 -5 -5
9 9 9 9 10 10 10 10 10 9 9 9 9 8 8 8 8 8 8 7 7 8 8 8 8 7 6 5 5 4 3 1 0 -1 -2 -3 -3 -4 -5 -5 -5 -5 -6 -5 -5
9 9 9 9 9 10 10 10 9 9 9 9 9 8 8 8 8 8 7 7 7 7 7 7 7 6 5 5 3 2 2 -0 -1 -3 -5 -5 -5 -6 -6 -6 -7 -8 -7 -7 -6
9 9 9 9 9 9 10 9 9 8 9 9 9 8 8 8 7 7 7 7 6 7 7 6 6 5 4 3 3 1 0 -1 -3 -4 -7 -8 -7 -7 -7 -8 -9 -9 -7 -7 -7
8 8 9 9 9 9 9 9 9 9 8 9 9 8 7 8 7 7 6 6 6 6 6 5 5 3 3 3 1 1 -1 -4 -3 -5 -7 -8 -7 -7 -8 -9 -9 -9 -9 -8 -8
8 8 8 9 9 9 9 9 9 9 8 8 8 8 8 7 6 5 6 6 6 6 5 4 4 4 2 2 1 -0 -3 -3 -3 -5 -8 -9 -8 -8 -8 -8 -9 -9 -8 -8 -8
8 8 8 9 9 9 9 9 9 8 8 8 8 8 7 6 6 6 6 6 5 5 4 3 4 3 2 1 -0 -1 -3 -5 -4 -7 -10 -10 -9 -8 -9 -9 -9 -9 -9 -9 -9
8 8 8 8 9 9 9 9 9 8 7 8 8 8 7 6 5 6 5 5 5 5 4 4 2 1 2 0 -4 -4 -5 -6 -7 -7 -9 -9 -9 -8 -8 -9 -9 -9 -9 -8 -9
7 8 8 8 8 9 9 9 9 8 7 8 7 6 6 6 5 5 5 5 5 4 4 3 1 0 -1 -2 -4 -5 -4 -6 -7 -9 -11 -8 -7 -7 -8 -9 -9 -9 -9 -8 -10
7 8 8 8 8 9 9 9 9 8 8 7 7 6 6 6 5 5 5 4 4 4 3 2 0 -1 -2 -3 -3 -3 -4 -6 -7 -8 -9 -8 -6 -6 -6 -7 -9 -10 -9 -10 -12
7 7 8 8 8 8 9 9 9 8 8 7 7 6 6 6 5 5 5 4 3 3 3 1 -0 -2 -2 -3 -2 -4 -5 -7 -10 -8 -8 -10 -8 -7 -8 -8 -9 -9 -10 -12 -11
7 7 7 8 8 8 8 8 9 8 7 7 6 6 5 5 5 4 3 3 2 2 2 0 -1 -1 -3 -3 -4 -4 -5 -7 -6 -9 -10 -11 -13 -8 -9 -9 -9 -10 -11 -10 -9
7 7 7 7 7 7 8 8 8 7 5 6 6 6 5 4 4 3 3 2 2 1 1 1 -0 -1 -3 -5 -5 -5 -5 -5 -7 -9 -11 -11 -12 -9 -9 -10 -10 -11 -11 -11 -12
6 6 6 7 7 7 7 8 8 7 4 6 5 5 5 5 4 4 2 1 2 1 0 0 -1 -3 -3 -5 -5 -6 -4 -6 -8 -10 -15 -11 -12 -10 -10 -10 -10 -11 -11 -11 -11
6 6 6 6 7 7 7 7 7 6 5 5 5 5 4 4 4 3 3 2 0 -1 -1 -1 -2 -3 -3 -5 -6 -7 -6 -11 -10 -13 -15 -11 -12 -8 -9 -10 -10 -10 -10 -11 -11
6 6 6 6 6 6 6 7 6 5 5 5 5 5 4 3 3 2 2 0 -1 -2 -3 -4 -2 -3 -4 -6 -7 -8 -10 -13 -17 -15 -14 -12 -13 -10 -10 -10 -10 -11 -12 -11 -12
5 6 6 6 6 6 6 6 5 4 4 4 4 4 3 3 2 1 1 -0 -1 -2 -4 -4 -3 -3 -5 -7 -8 -9 -11 -12 -15 -15 -17 -13 -10 -11 -11 -11 -11 -11 -11 -12 -13
5 5 5 5 5 5 5 5 4 4 4 4 3 3 2 2 2 1 0 -1 -2 -3 -4 -5 -5 -4 -4 -6 -8 -10 -11 -13 -14 -21 -18 -15 -13 -10 -10 -10 -11 -12 -13 -13 -13
5 5 5 5 5 5 5 4 4 4 4 3 3 2 2 2 2 1 -0 -1 -2 -3 -4 -5 -6 -3 -6 -6 -8 -10 -12 -12 -14 -15 -21 -20 -13 -9 -10 -12 -13 -13 -13 -13 -12
5 5 5 5 5 4 4 4 4 4 3 3 3 3 2 1 2 1 -0 -2 -3 -4 -4 -4 -6 -5 -5 -6 -8 -11 -11 -13 -14 -15 -15 -17 -15 -10 -10 -12 -13 -13 -13 -13 -13
5 5 5 5 4 4 4 4 4 3 3 3 3 2 2 1 0 0 -0 -1 -2 -3 -4 -4 -5 -6 -4 -7 -8 -10 -11 -12 -14 -16 -16 -19 -12 -9 -12 -13 -14 -13 -14 -13 -14
4 4 4 4 4 4 4 3 3 3 3 3 3 2 2 2 1 1 -1 -1 -1 -2 -3 -5 -6 -6 -6 -6 -8 -9 -10 -12 -14 -15 -13 -13 -11 -10 -13 -13 -13 -13 -14 -13 -13
3 3 3 3 3 3 3 3 3 3 3 3 3 2 1 1 1 1 0 -1 -1 -3 -3 -6 -6 -7 -5 -6 -7 -8 -8 -10 -12 -10 -14 -10 -13 -12 -14 -14 -14 -14 -14 -13 -13
3 3 3 3 3 3 2 3 2 2 2 2 2 2 2 1 1 1 0 -1 -2 -2 -4 -5 -6 -7 -4 -4 -8 -7 -6 -7 -9 -10 -12 -12 -13 -15 -13 -14 -13 -15 -14 -13 -14
3 2 2 2 2 2 2 2 2 1 2 2 1 1 1 1 1 1 1 0 -1 -2 -3 -5 -6 -8 -6 -5 -5 -6 -5 -6 -8 -9 -11 -12 -13 -14 -14 -13 -13 -15 -14 -15 -15
Height
3176 3175 3174 3172 3171 3169 3167 3164 3162 3161 3160 3159 3158 3156 3155 3154 3152 3150 3151 3148 3145 3143 3141 3139 3136 3133 3131 3129 3127 3124 3122 3118 3114 3112 3109 3105 3103 3102 3098 3095 3093 3093 3088 3086 3084
3177 3176 3175 3173 3171 3169 3167 3165 3163 3162 3160 3160 3159 3157 3156 3154 3152 3151 3149 3146 3144 3142 3140 3138 3136 3133 3130 3128 3124 3120 3117 3113 3110 3108 3106 3103 3099 3092 3090 3090 3089 3084 3084 3081 3081
3178 3177 3176 3175 3173 3171 3168 3166 3164 3163 3162 3161 3160 3158 3156 3154 3153 3151 3148 3146 3144 3142 3139 3137 3134 3132 3128 3124 3121 3118 3114 3110 3106 3104 3100 3095 3093 3088 3085 3083 3079 3080 3079 3077 3075
3180 3179 3178 3176 3174 3172 3170 3167 3165 3164 3163 3163 3161 3159 3157 3155 3156 3152 3148 3145 3143 3140 3138 3134 3132 3128 3124 3120 3117 3115 3110 3106 3102 3099 3093 3089 3086 3083 3080 3078 3075 3073 3071 3071 3068
3182 3180 3179 3177 3175 3173 3171 3168 3166 3165 3165 3164 3162 3160 3159 3157 3155 3151 3148 3145 3142 3139 3138 3133 3129 3125 3121 3117 3113 3109 3105 3099 3097 3091 3084 3082 3083 3075 3074 3072 3070 3068 3065 3067 3065
3183 3181 3179 3178 3176 3174 3172 3170 3168 3166 3165 3164 3162 3160 3158 3157 3154 3149 3147 3144 3142 3140 3135 3131 3127 3123 3118 3113 3110 3105 3098 3095 3090 3084 3077 3074 3074 3071 3070 3067 3066 3062 3062 3062 3059
3183 3182 3180 3179 3177 3175 3172 3170 3168 3166 3166 3165 3162 3160 3159 3156 3152 3149 3146 3143 3140 3136 3133 3129 3124 3122 3116 3109 3106 3100 3096 3090 3084 3081 3076 3070 3070 3070 3067 3066 3064 3061 3060 3057 3055
3184 3183 3181 3180 3178 3175 3173 3171 3168 3167 3166 3166 3162 3160 3157 3154 3152 3149 3146 3142 3138 3135 3130 3126 3124 3121 3109 3106 3103 3095 3091 3086 3085 3077 3072 3067 3058 3064 3065 3062 3059 3057 3056 3054 3052
3185 3184 3182 3180 3178 3176 3174 3171 3169 3168 3167 3166 3163 3160 3157 3155 3152 3149 3146 3142 3137 3134 3128 3125 3121 3116 3113 3104 3101 3093 3087 3083 3074 3074 3068 3067 3055 3057 3057 3056 3054 3053 3052 3050 3048
3186 3184 3183 3181 3179 3176 3174 3171 3169 3168 3168 3166 3163 3162 3159 3155 3150 3148 3144 3141 3137 3132 3127 3124 3116 3114 3108 3099 3098 3093 3084 3081 3078 3070 3060 3056 3049 3048 3048 3046 3045 3048 3048 3046 3043
3187 3185 3183 3182 3180 3177 3175 3172 3172 3169 3167 3165 3164 3162 3159 3155 3151 3146 3141 3136 3132 3127 3123 3119 3118 3110 3105 3101 3099 3096 3089 3080 3073 3066 3056 3051 3043 3041 3041 3040 3042 3044 3045 3043 3040
3188 3186 3184 3182 3180 3177 3175 3172 3170 3169 3166 3166 3165 3162 3158 3154 3151 3146 3142 3137 3132 3126 3120 3118 3114 3109 3107 3102 3099 3096 3085 3073 3067 3064 3054 3047 3041 3038 3037 3037 3039 3041 3041 3039 3037
3188 3186 3184 3182 3180 3178 3175 3172 3168 3165 3166 3166 3163 3161 3156 3154 3149 3145 3141 3137 3132 3127 3121 3117 3115 3111 3106 3102 3095 3090 3080 3073 3067 3053 3053 3047 3039 3039 3038 3037 3039 3041 3040 3036 3031
3188 3186 3184 3182 3182 3177 3175 3171 3168 3165 3165 3168 3164 3160 3158 3152 3149 3145 3140 3137 3131 3126 3118 3115 3112 3110 3107 3102 3091 3083 3079 3068 3062 3057 3056 3052 3047 3039 3038 3037 3039 3039 3034 3030 3028
3188 3187 3185 3182 3180 3177 3176 3171 3168 3166 3166 3170 3165 3161 3158 3156 3150 3144 3138 3134 3130 3126 3124 3119 3114 3109 3104 3097 3090 3084 3074 3065 3063 3059 3056 3053 3052 3039 3037 3039 3037 3033 3028 3026 3022
3188 3186 3184 3183 3180 3178 3175 3171 3168 3168 3167 3169 3166 3162 3158 3153 3148 3142 3137 3133 3129 3124 3121 3117 3111 3106 3102 3097 3089 3081 3074 3065 3060 3057 3056 3056 3056 3041 3038 3037 3034 3030 3027 3024 3020
3188 3186 3184 3182 3180 3177 3175 3172 3172 3170 3174 3171 3165 3160 3156 3152 3146 3142 3136 3131 3126 3119 3115 3111 3107 3104 3100 3092 3088 3084 3072 3066 3064 3064 3064 3056 3053 3039 3039 3037 3033 3029 3026 3020 3014
3187 3185 3184 3182 3180 3177 3175 3173 3171 3173 3170 3168 3164 3159 3156 3150 3146 3141 3135 3131 3127 3123 3113 3110 3104 3104 3099 3096 3091 3083 3082 3086 3095 3078 3064 3053 3048 3039 3034 3031 3029 3025 3020 3012 3004
3187 3185 3183 3181 3179 3177 3176 3174 3174 3172 3170 3166 3162 3158 3155 3150 3146 3140 3135 3132 3128 3124 3124 3115 3106 3103 3098 3093 3094 3090 3086 3084 3079 3076 3070 3050 3043 3036 3031 3027 3023 3018 3011 3001 2991
3186 3185 3183 3181 3179 3177 3176 3174 3173 3171 3168 3165 3162 3159 3155 3150 3146 3139 3134 3130 3127 3123 3119 3116 3106 3099 3096 3092 3091 3090 3089 3085 3084 3086 3075 3048 3038 3031 3028 3024 3018 3008 2998 2987 2976
3185 3183 3182 3180 3178 3177 3175 3173 3172 3170 3168 3165 3161 3158 3155 3149 3144 3140 3136 3131 3126 3121 3115 3110 3109 3102 3096 3090 3087 3087 3085 3085 3084 3081 3081 3067 3030 3026 3022 3015 3006 2997 2988 2975 2963
3183 3182 3180 3179 3179 3175 3174 3172 3171 3169 3166 3164 3160 3157 3153 3148 3143 3140 3136 3132 3126 3122 3115 3110 3104 3095 3092 3088 3083 3081 3081 3081 3080 3078 3073 3067 3030 3021 3018 3011 3000 2986 2975 2964 2952
3182 3180 3179 3177 3176 3175 3173 3172 3170 3167 3165 3162 3159 3156 3152 3148 3145 3138 3134 3129 3123 3119 3115 3112 3103 3095 3088 3085 3079 3074 3076 3074 3073 3070 3063 3064 3020 3019 3011 2999 2990 2974 2962 2949 2938
3180 3179 3177 3175 3174 3173 3172 3170 3168 3166 3163 3160 3157 3154 3150 3146 3141 3136 3131 3124 3119 3114 3109 3107 3102 3100 3096 3090 3081 3075 3069 3067 3067 3065 3046 3034 3012 3007 2998 2986 2973 2963 2952 2940 2927
3177 3176 3175 3174 3173 3171 3170 3168 3166 3163 3161 3158 3154 3151 3148 3144 3139 3134 3128 3122 3116 3112 3108 3103 3095 3089 3084 3077 3071 3065 3061 3058 3053 3048 3044 3020 3017 3009 2996 2982 2969 2957 2942 2927 2912
3174 3173 3172 3171 3170 3169 3167 3165 3163 3161 3159 3156 3152 3148 3145 3141 3137 3130 3125 3118 3114 3108 3103 3098 3093 3083 3072 3069 3062 3055 3053 3049 3045 3041 3031 3020 3009 3009 2992 2980 2968 2954 2938 2922 2905
3170 3169 3167 3166 3166 3165 3164 3162 3160 3157 3155 3153 3150 3146 3142 3139 3133 3128 3123 3115 3111 3107 3101 3095 3090 3083 3066 3064 3056 3048 3045 3042 3035 3030 3023 3014 3009 2995 2984 2975 2964 2947 2934 2915 2900
Wind_Speed
15 15 16 16 17 18 19 18 15 11 9 8 11 16 20 18 13 18 9 14 16 16 15 15 16 16 16 16 16 18 12 16 18 21 23 29 32 31 35 37 34 21 25 31 36
14 15 16 17 18 19 19 18 14 11 10 10 12 15 18 18 11 18 19 18 16 15 15 15 17 19 17 19 17 16 16 17 22 25 29 31 34 39 36 27 21 22 21 27 31
13 14 15 16 17 19 19 18 14 12 11 12 13 16 19 20 7 21 20 18 17 18 17 18 19 19 20 19 18 17 17 20 24 26 28 31 29 31 29 27 24 25 26 28 30
13 13 13 15 17 19 20 19 15 12 14 15 14 16 20 21 12 19 19 19 19 21 19 19 20 21 22 21 21 17 20 23 21 24 28 28 28 29 24 24 23 24 24 27 30
13 13 13 15 16 19 20 19 14 11 14 19 17 16 20 16 19 20 21 20 21 21 18 18 21 23 23 23 21 24 25 20 22 29 25 24 21 26 26 21 21 23 24 22 24
13 13 13 15 16 19 21 19 13 5 10 20 21 17 24 18 21 24 22 22 21 22 17 17 24 26 25 23 24 26 23 18 32 27 29 31 30 27 13 12 13 21 24 26 27
13 14 14 15 17 19 21 19 14 7 3 17 22 16 21 25 22 25 23 21 21 22 18 19 24 24 30 27 26 29 21 27 30 34 32 30 26 15 12 10 13 22 27 27 21
14 16 16 15 17 19 20 19 16 11 6 13 25 16 26 28 22 24 24 23 23 24 17 17 22 30 36 32 32 29 21 39 37 25 24 23 32 16 19 19 27 28 21 18 16
14 16 16 16 17 18 19 20 16 11 7 14 26 18 27 27 20 25 25 22 23 23 16 16 26 32 31 37 29 26 35 40 38 28 24 21 35 25 29 31 22 21 18 13 13
13 15 16 17 18 19 20 20 17 12 7 13 27 18 27 26 21 27 26 21 21 24 16 20 28 31 37 41 29 34 41 42 40 38 31 30 37 33 29 30 24 19 13 11 15
12 14 15 17 18 19 19 20 17 10 4 23 27 25 26 27 21 28 27 27 27 29 19 20 24 35 36 36 35 32 33 38 39 19 29 36 24 10 9 10 12 13 13 14 17
11 12 14 16 17 18 19 20 17 13 4 16 25 25 27 29 24 27 27 28 25 29 20 19 26 28 31 36 36 25 37 45 29 35 28 24 18 7 9 12 10 15 15 15 20
10 11 13 14 16 17 18 20 18 13 7 18 26 28 30 31 26 29 28 26 24 26 17 12 23 23 32 37 40 25 39 48 36 34 19 24 7 11 13 7 11 13 13 17 26
11 12 13 14 14 17 18 19 17 11 5 17 27 28 28 31 27 30 26 27 25 25 22 14 24 24 28 36 38 28 40 39 24 23 10 18 8 8 14 12 9 11 18 27 30
11 12 13 15 17 18 19 19 15 6 4 14 25 28 25 28 26 29 28 28 23 21 28 21 19 17 26 36 32 32 43 23 15 12 12 6 6 10 4 12 9 16 23 27 30
10 11 13 15 16 17 18 18 11 6 5 13 21 23 25 29 27 30 28 27 22 24 30 19 18 18 25 34 28 38 43 10 6 9 3 4 10 8 5 11 14 17 23 29 37
10 11 13 14 15 16 17 16 5 7 12 14 23 21 24 31 27 30 29 28 31 27 33 21 20 22 27 37 22 32 39 11 9 6 4 6 14 10 13 17 20 25 29 35 42
11 12 13 14 15 15 15 12 6 11 14 17 21 20 21 30 25 30 28 23 28 33 24 18 12 23 28 31 23 26 25 5 5 4 7 15 8 9 15 14 20 24 26 50 54
10 12 13 13 14 13 12 8 6 11 14 16 19 18 22 28 25 24 23 20 25 32 24 13 11 19 22 28 18 18 16 11 6 5 5 8 9 13 20 14 18 31 50 55 54
10 11 12 14 13 11 11 8 8 11 14 15 15 17 21 28 24 24 24 21 26 32 31 16 13 14 26 21 18 18 17 4 4 4 6 8 13 14 15 22 37 44 57 54 51
12 13 13 14 13 10 10 9 9 11 14 14 16 17 20 27 25 22 23 21 28 31 31 24 13 16 25 15 21 16 12 8 8 5 4 4 17 14 19 38 47 57 53 52 51
13 13 14 13 12 10 11 10 9 11 14 14 15 18 20 25 20 18 22 23 27 29 25 22 12 24 24 16 18 15 18 14 3 3 11 7 17 14 45 49 51 53 53 52 52
14 13 11 13 9 11 12 12 9 12 13 15 15 16 22 24 14 19 27 30 29 29 21 20 14 18 13 12 18 22 25 27 16 11 18 4 18 44 46 50 51 54 55 56 57
15 13 14 13 9 15 14 10 12 12 14 16 15 17 21 23 26 21 29 29 33 29 26 22 16 16 18 30 33 36 33 31 26 13 22 33 51 50 53 56 56 55 55 56 56
15 15 14 14 15 15 15 14 13 15 13 15 15 18 20 22 24 27 33 32 31 25 23 25 23 24 34 38 23 26 22 21 30 30 31 43 47 44 52 57 58 58 57 58 58
18 18 18 18 17 16 17 17 16 15 16 17 17 20 21 22 24 29 33 31 26 26 29 30 20 34 48 14 29 33 14 17 23 28 39 41 44 38 54 56 57 55 58 59 61
20 21 20 22 20 20 19 17 18 19 19 17 20 22 24 23 26 29 32 30 24 23 25 24 25 32 14 33 33 12 20 21 27 32 35 37 37 52 56 56 54 55 56 63 63
Wind_Direction
54 47 40 33 28 24 21 22 29 41 40 39 31 25 23 18 28 22 360 17 18 16 13 15 15 4 1 352 351 339 321 298 294 287 281 286 285 281 280 286 288 273 248 251 257
46 41 35 29 25 22 20 23 30 31 31 40 29 22 19 18 24 11 19 19 16 16 17 12 10 5 357 356 350 342 329 310 300 293 289 285 283 286 291 287 279 260 249 252 259
42 38 33 28 25 23 23 23 31 27 55 45 28 29 21 18 17 15 17 14 13 16 13 13 4 5 3 360 354 344 331 316 307 302 298 291 289 288 289 290 284 276 265 264 267
42 36 31 28 27 26 25 25 28 57 66 42 38 25 21 21 23 13 14 11 13 16 13 7 5 3 5 4 357 347 335 324 314 313 303 297 296 290 290 291 284 280 282 275 278
37 32 26 26 26 25 26 27 35 76 60 39 31 26 22 20 24 18 16 11 15 13 10 2 6 8 7 4 2 354 340 327 329 326 315 304 310 308 304 290 276 274 277 291 294
33 29 25 25 24 23 24 27 31 66 51 31 19 22 15 4 20 19 14 11 12 11 5 7 11 9 10 11 5 351 347 333 338 336 318 316 318 308 303 311 298 291 301 310 309
28 26 25 23 22 21 21 24 26 22 54 27 19 24 13 21 16 17 11 9 10 7 7 12 13 5 10 10 5 358 347 340 339 328 307 305 304 301 295 307 286 286 297 305 303
26 24 25 22 20 21 19 19 26 40 70 21 18 21 15 13 16 13 7 7 9 6 5 12 11 12 12 11 2 4 343 334 338 336 327 309 305 304 289 294 285 282 296 298 301
28 26 24 21 18 18 17 15 23 38 47 22 18 22 15 9 11 7 10 8 9 2 3 7 7 15 10 16 4 0 339 340 340 340 324 303 294 304 296 289 281 288 294 297 325
32 28 23 20 17 15 14 12 13 19 52 25 20 21 9 7 8 3 6 9 9 5 3 10 13 14 11 11 9 349 342 334 333 328 316 308 297 295 284 276 254 273 274 299 338
30 28 24 20 16 13 11 10 7 4 148 29 19 16 8 5 8 5 2 7 6 7 10 11 6 14 11 3 3 350 335 332 339 327 305 325 327 324 261 249 250 264 262 300 327
26 24 22 18 14 9 8 7 6 360 121 27 18 9 6 7 2 3 3 6 5 7 8 7 6 11 6 0 356 351 345 343 338 331 324 329 333 344 333 274 247 253 271 311 295
15 17 17 16 10 6 6 3 1 5 114 24 11 6 5 3 2 1 5 2 9 9 8 4 3 6 2 356 352 1 352 339 326 330 341 330 335 327 340 330 248 251 295 266 281
2 6 8 11 6 6 6 2 360 5 124 11 3 4 3 1 0 360 3 6 7 11 4 356 357 358 357 358 352 354 350 337 334 328 335 333 294 338 317 289 275 279 264 286 299
355 360 2 3 6 4 2 0 0 20 54 353 355 356 3 4 358 358 1 7 5 6 3 353 352 353 356 357 353 345 353 333 327 319 319 350 305 323 297 257 272 248 269 288 290
350 353 356 356 358 359 359 1 5 21 9 352 352 355 359 1 1 360 2 1 5 2 357 350 351 358 352 355 355 350 351 335 345 344 7 81 5 284 287 275 269 263 275 288 300
345 348 349 350 352 355 359 1 24 44 347 343 348 356 359 359 359 0 360 1 7 5 356 353 351 350 351 354 354 351 6 353 356 6 250 247 321 267 298 283 278 281 284 294 304
342 342 345 347 349 352 359 8 40 358 359 351 351 355 358 2 357 356 356 359 0 2 352 348 339 344 342 348 349 1 12 81 256 299 299 305 236 301 290 271 269 282 301 310 312
338 337 339 340 346 352 2 21 23 2 352 353 351 356 357 358 354 353 353 354 356 356 6 340 313 333 334 340 352 349 4 351 292 275 286 282 289 281 269 275 289 303 306 311 314
338 336 334 339 349 356 11 23 9 358 354 352 359 357 354 354 354 354 357 347 351 348 351 338 311 320 335 331 338 345 356 347 332 351 304 289 287 267 288 299 304 310 313 317 318
338 339 338 342 349 358 10 5 356 351 351 351 350 353 354 353 351 350 350 350 344 344 347 340 327 323 327 323 321 326 324 338 315 219 204 299 288 308 314 322 319 314 319 323 324
334 336 335 339 346 356 355 350 341 343 344 346 345 348 350 353 343 346 339 342 341 345 343 337 307 314 318 315 320 313 313 316 319 259 236 262 272 331 327 322 315 323 327 326 328
321 326 326 329 334 340 341 336 330 333 336 339 342 343 345 348 348 335 340 338 339 341 337 337 321 320 332 331 328 319 318 311 306 279 250 224 282 319 321 322 331 332 331 331 329
309 316 317 318 323 329 330 327 321 323 327 332 335 335 338 343 343 335 334 333 337 336 332 333 305 293 267 300 303 298 298 293 283 261 274 260 298 332 329 333 337 338 332 331 334
295 301 302 300 306 315 318 314 312 314 316 322 324 331 332 335 336 335 333 331 331 327 327 326 310 305 315 317 299 307 303 280 267 289 263 298 301 328 330 334 338 338 333 335 340
286 290 292 294 299 300 309 309 306 302 306 310 313 325 325 327 328 328 330 328 322 324 319 322 313 318 322 326 321 316 302 281 284 287 287 303 303 324 336 335 340 340 336 340 340
281 280 281 286 290 295 299 302 299 300 305 303 306 315 321 322 322 324 326 322 314 315 315 313 316 322 304 327 316 311 338 323 320 320 318 302 327 336 336 339 345 339 343 342 342